| time (UTC) | temp C | wind direction | speed KPH | gust KPH | rain 1hr cm | rain 24hr cm | rain mn cm | humidity % | barometer mb |
| 20260503055017 | 9 | 201 | 0.0 | 3.2 | 0.00 | 0.03 | 0.00 | 56 | 1010.5 |
| 20260503054017 | 9 | 176 | 1.6 | 6.4 | 0.00 | 0.03 | 0.00 | 55 | 1010.4 |
| 20260503053017 | 10 | 178 | 1.6 | 4.8 | 0.00 | 0.03 | 0.00 | 55 | 1010.6 |
| 20260503052017 | 10 | 200 | 1.6 | 4.8 | 0.00 | 0.03 | 0.00 | 54 | 1010.7 |
| 20260503051058 | 10 | 191 | 1.6 | 4.8 | 0.00 | 0.03 | 0.00 | 55 | 1010.8 |
| 20260503050017 | 10 | 194 | 1.6 | 4.8 | 0.00 | 0.03 | 0.00 | 54 | 1011.0 |
| 20260503045017 | 10 | 188 | 0.0 | 4.8 | 0.00 | 0.03 | 0.00 | 58 | 1010.9 |
| 20260503044018 | 10 | 115 | 0.0 | 3.2 | 0.00 | 0.03 | 0.00 | 57 | 1010.9 |
| 20260503043018 | 10 | 181 | 1.6 | 4.8 | 0.00 | 0.03 | 0.00 | 56 | 1011.0 |
| 20260503042018 | 10 | 160 | 1.6 | 4.8 | 0.00 | 0.03 | 0.00 | 57 | 1011.0 |
| 20260503041018 | 10 | 187 | 1.6 | 4.8 | 0.00 | 0.03 | 0.00 | 56 | 1011.1 |
| 20260503040018 | 10 | 167 | 1.6 | 4.8 | 0.00 | 0.03 | 0.00 | 58 | 1011.1 |
| 20260503035038 | 10 | 170 | 1.6 | 4.8 | 0.00 | 0.03 | 0.03 | 62 | 1010.9 |
| 20260503034016 | 10 | 136 | 0.0 | 3.2 | 0.00 | 0.03 | 0.03 | 66 | 1010.9 |
| 20260503033056 | 10 | 131 | 0.0 | 1.6 | 0.00 | 0.03 | 0.03 | 65 | 1010.8 |
| 20260503032016 | 10 | 211 | 0.0 | 1.6 | 0.00 | 0.03 | 0.03 | 64 | 1010.8 |
| 20260503031016 | 10 | 179 | 0.0 | 3.2 | 0.00 | 0.03 | 0.03 | 62 | 1010.8 |
| 20260503030016 | 10 | 164 | 0.0 | 3.2 | 0.00 | 0.03 | 0.03 | 61 | 1010.9 |
| 20260503025016 | 11 | 200 | 0.0 | 1.6 | 0.00 | 0.03 | 0.03 | 60 | 1010.8 |
| 20260503024016 | 11 | 112 | 0.0 | 3.2 | 0.00 | 0.03 | 0.03 | 59 | 1010.8 |
| 20260503023036 | 11 | 157 | 1.6 | 4.8 | 0.00 | 0.03 | 0.03 | 59 | 1010.9 |
| 20260503022017 | 11 | 203 | 1.6 | 3.2 | 0.00 | 0.03 | 0.03 | 57 | 1011.0 |
| 20260503021017 | 11 | 170 | 1.6 | 3.2 | 0.00 | 0.03 | 0.03 | 57 | 1011.0 |
| 20260503020017 | 11 | 164 | 0.0 | 3.2 | 0.00 | 0.03 | 0.03 | 57 | 1011.1 |
| 20260503015017 | 11 | 182 | 1.6 | 3.2 | 0.00 | 0.03 | 0.03 | 59 | 1011.0 |
| 20260503014017 | 11 | 154 | 0.0 | 3.2 | 0.00 | 0.03 | 0.03 | 60 | 1011.0 |
| 20260503013017 | 11 | 163 | 0.0 | 1.6 | 0.00 | 0.03 | 0.03 | 59 | 1011.0 |
| 20260503012018 | 11 | 56 | 0.0 | 1.6 | 0.00 | 0.03 | 0.03 | 57 | 1010.9 |
| 20260503011018 | 11 | 170 | 0.0 | 4.8 | 0.00 | 0.03 | 0.03 | 57 | 1010.8 |
| 20260503010018 | 11 | 177 | 0.0 | 3.2 | 0.00 | 0.03 | 0.03 | 54 | 1010.7 |
| 20260503005038 | 11 | 57 | 0.0 | 3.2 | 0.00 | 0.03 | 0.03 | 55 | 1010.6 |
| 20260503004015 | 11 | 155 | 1.6 | 6.4 | 0.00 | 0.03 | 0.03 | 56 | 1010.4 |
| 20260503003018 | 11 | 92 | 0.0 | 3.2 | 0.00 | 0.03 | 0.03 | 62 | 1010.5 |
| 20260503002015 | 11 | 261 | 1.6 | 4.8 | 0.00 | 0.03 | 0.03 | 65 | 1010.4 |
| 20260503001015 | 11 | 133 | 0.0 | 1.6 | 0.00 | 0.03 | 0.03 | 67 | 1010.3 |
| 20260503000016 | 12 | 119 | 0.0 | 3.2 | 0.00 | 0.03 | 0.03 | 66 | 1010.3 |
| 20260502235056 | 12 | 37 | 0.0 | 3.2 | 0.00 | 0.03 | 0.03 | 66 | 1010.2 |
| 20260502234016 | 13 | 66 | 0.0 | 1.6 | 0.00 | 0.03 | 0.03 | 62 | 1010.1 |
| 20260502233016 | 13 | 125 | 0.0 | 1.6 | 0.00 | 0.03 | 0.03 | 60 | 1010.0 |
| 20260502232036 | 14 | 169 | 0.0 | 3.2 | 0.00 | 0.03 | 0.03 | 55 | 1010.0 |
| 20260502231016 | 15 | 329 | 0.0 | 1.6 | 0.00 | 0.03 | 0.03 | 54 | 1009.9 |
| 20260502230016 | 15 | 254 | 0.0 | 1.6 | 0.00 | 0.03 | 0.03 | 50 | 1009.8 |
| 20260502225037 | 15 | 246 | 0.0 | 3.2 | 0.00 | 0.03 | 0.03 | 47 | 1009.7 |
| 20260502224017 | 16 | 314 | 1.6 | 3.2 | 0.00 | 0.03 | 0.03 | 46 | 1009.7 |
| 20260502223017 | 16 | 199 | 0.0 | 3.2 | 0.00 | 0.03 | 0.03 | 46 | 1009.7 |
| 20260502222017 | 16 | 116 | 0.0 | 4.8 | 0.00 | 0.03 | 0.03 | 46 | 1009.7 |
| 20260502221037 | 15 | 328 | 0.0 | 3.2 | 0.00 | 0.03 | 0.03 | 48 | 1009.7 |
| 20260502220017 | 15 | 71 | 1.6 | 4.8 | 0.00 | 0.03 | 0.03 | 49 | 1009.7 |
| 20260502215018 | 15 | 37 | 1.6 | 4.8 | 0.00 | 0.03 | 0.03 | 52 | 1009.8 |
| 20260502214018 | 15 | 145 | 1.6 | 6.4 | 0.00 | 0.03 | 0.03 | 51 | 1009.7 |
| 20260502213018 | 15 | 148 | 1.6 | 6.4 | 0.00 | 0.03 | 0.03 | 52 | 1009.7 |
| 20260502212015 | 15 | 49 | 1.6 | 4.8 | 0.00 | 0.03 | 0.03 | 51 | 1009.6 |
| 20260502211018 | 15 | 213 | 1.6 | 4.8 | 0.00 | 0.03 | 0.03 | 54 | 1009.6 |
| 20260502210018 | 15 | 143 | 1.6 | 4.8 | 0.00 | 0.03 | 0.03 | 56 | 1009.5 |
| 20260502205015 | 15 | 149 | 3.2 | 6.4 | 0.00 | 0.03 | 0.03 | 58 | 1009.5 |
| 20260502204016 | 15 | 180 | 1.6 | 4.8 | 0.00 | 0.03 | 0.03 | 61 | 1009.6 |
| 20260502203015 | 15 | 208 | 1.6 | 4.8 | 0.00 | 0.03 | 0.03 | 60 | 1009.7 |
| 20260502202016 | 16 | 198 | 1.6 | 4.8 | 0.00 | 0.03 | 0.03 | 53 | 1009.7 |
| 20260502201016 | 15 | 197 | 1.6 | 4.8 | 0.00 | 0.03 | 0.03 | 51 | 1009.8 |
| 20260502200056 | 15 | 152 | 1.6 | 8.0 | 0.00 | 0.03 | 0.03 | 52 | 1009.9 |
| 20260502195016 | 15 | 68 | 1.6 | 4.8 | 0.00 | 0.03 | 0.03 | 52 | 1010.1 |
| 20260502194016 | 15 | 99 | 1.6 | 6.4 | 0.00 | 0.03 | 0.03 | 53 | 1010.2 |
| 20260502193057 | 16 | 214 | 1.6 | 4.8 | 0.00 | 0.03 | 0.03 | 53 | 1010.3 |
| 20260502192017 | 15 | 222 | 1.6 | 6.4 | 0.00 | 0.03 | 0.03 | 51 | 1010.5 |
| 20260502191017 | 15 | 205 | 1.6 | 4.8 | 0.00 | 0.03 | 0.03 | 52 | 1010.6 |
| 20260502190017 | 15 | 271 | 1.6 | 6.4 | 0.00 | 0.03 | 0.03 | 53 | 1010.7 |
| 20260502185018 | 15 | 240 | 1.6 | 9.7 | 0.00 | 0.03 | 0.03 | 54 | 1010.8 |
| 20260502184017 | 15 | 333 | 1.6 | 6.4 | 0.00 | 0.03 | 0.03 | 54 | 1010.9 |
| 20260502182038 | 15 | 270 | 1.6 | 4.8 | 0.00 | 0.03 | 0.03 | 56 | 1011.0 |
| 20260502181018 | 15 | 202 | 0.0 | 3.2 | 0.00 | 0.03 | 0.03 | 59 | 1011.1 |
| 20260502164017 | 13 | 219 | 1.6 | 4.8 | 0.00 | 0.03 | 0.03 | 66 | 1011.8 |
| 20260502163016 | 13 | 224 | 1.6 | 4.8 | 0.00 | 0.03 | 0.03 | 67 | 1011.7 |
| 20260502162017 | 13 | 283 | 1.6 | 6.4 | 0.00 | 0.03 | 0.03 | 68 | 1011.7 |
| 20260502161016 | 13 | 337 | 0.0 | 4.8 | 0.00 | 0.03 | 0.03 | 70 | 1011.8 |
| 20260502152017 | 12 | 225 | 1.6 | 3.2 | 0.00 | 0.03 | 0.03 | 73 | 1011.9 |
| 20260502151017 | 12 | 4 | 1.6 | 3.2 | 0.00 | 0.03 | 0.03 | 75 | 1012.0 |
| 20260502123018 | 10 | 39 | 0.0 | 3.2 | 0.00 | 0.03 | 0.03 | 87 | 1012.2 |
| 20260502122018 | 10 | 212 | 0.0 | 1.6 | 0.00 | 0.03 | 0.03 | 89 | 1012.1 |
| 20260502121018 | 10 | 79 | 0.0 | 3.2 | 0.00 | 0.03 | 0.03 | 89 | 1012.0 |
| 20260502115016 | 10 | 129 | 0.0 | 3.2 | 0.00 | 0.03 | 0.03 | 90 | 1012.1 |
| 20260502114018 | 10 | 178 | 0.0 | 3.2 | 0.00 | 0.03 | 0.03 | 91 | 1012.2 |
| 20260502113015 | 10 | 177 | 0.0 | 1.6 | 0.03 | 0.03 | 0.03 | 92 | 1012.2 |
| 20260502112015 | 10 | 254 | 0.0 | 1.6 | 0.03 | 0.03 | 0.03 | 92 | 1012.1 |
| 20260502111036 | 10 | 180 | 0.0 | 1.6 | 0.03 | 0.03 | 0.03 | 92 | 1012.0 |
| 20260502110016 | 10 | 157 | 0.0 | 1.6 | 0.03 | 0.03 | 0.03 | 91 | 1011.7 |
| 20260502105016 | 10 | 289 | 0.0 | 1.6 | 0.03 | 0.03 | 0.03 | 91 | 1011.6 |
| 20260502104016 | 10 | 164 | 1.6 | 4.8 | 0.03 | 0.03 | 0.03 | 89 | 1011.3 |
| 20260502103017 | 10 | 150 | 0.0 | 3.2 | 0.00 | 0.00 | 0.00 | 89 | 1011.7 |
| 20260502102016 | 10 | 174 | 0.0 | 3.2 | 0.00 | 0.00 | 0.00 | 88 | 1011.5 |
| 20260502101057 | 10 | 98 | 0.0 | 1.6 | 0.00 | 0.00 | 0.00 | 85 | 1011.8 |
| 20260502091018 | 11 | 185 | 1.6 | 3.2 | 0.00 | 0.00 | 0.00 | 78 | 1011.4 |
| 20260502071017 | 11 | 144 | 0.0 | 3.2 | 0.00 | 0.00 | 0.00 | 76 | 1011.4 |
| 20260502070016 | 11 | 178 | 1.6 | 3.2 | 0.00 | 0.00 | 0.00 | 76 | 1011.5 |
| 20260502065017 | 10 | 206 | 0.0 | 3.2 | 0.00 | 0.00 | 0.00 | 76 | 1011.7 |